DELTA 1 DEB, 10710

Orbit data source: Space-Track

DELTA 1 DEB, 10710 is space debris in LEO originally from a launch on Thu, 29 Jul 1976 UTC launched from the Air Force Western Test Range (AFWTR). Debris objects in space refer to the collection of defunct objects orbiting the Earth. Examples of debris include non-operational satellites, rocket bodies, and fragments generated from explosions, collisions, or faulty payload assembly.

Loading next visibility...
Identifier
10710, 1976-077AF
Orbit
LEO
Last TLE update
1 day ago
Origin
Manufacturer
Unknown
Mission
Spacecraft
Bus & Motor
Unknown
Mass
Unknown
Launch date (UTC)
1976-07-29 (49 years ago)
Launch vehicle
Unknown
Launch site
Air Force Western Test Range (AFWTR)
Object type
Payload
Rocket body
Debris
Shape & HBR
Unknown
Radar Cross Section
Small (<0.1 m²)

Expand to show TLE details & history

TLE from 1 day ago
0 DELTA 1 DEB
1 10710U 76077AF  25181.35772087  .00000353  00000-0  44662-2 0  9997
2 10710 101.7617   7.4601 0258684 305.1802 175.1794 11.99111289110608
Epoch: 2025-06-30T08:35Z
TLE epoch observation values (Epoch: 2025-06-30T08:35:07.083Z)
Latitude
57.51028°
Longitude
159.00399°
Altitude
1,902.197 km
Speed
6.854 km/s
True Right ascension
13h 45m 48s
True Declination
57° 22' 33"
Sunlit
Object was in daylight at epoch
Visualization orbit readout
Latitude
-49.60534°
Longitude
126.83662°
Altitude
1,636.392 km
Speed
7.083 km/s
Apparent Right ascension
10h 17m 33s
Apparent Declination
-47° 01' 21"
Sunlit
Object is in daylight
Visualization observer readout
Local Sidereal Time
20:52:49
Azimuth
238.111° WSW
Elevation
-73.134°
Doppler factor
1
Orbital elements
Apogee altitude
1,890.969 km
Perigee altitude
1,473.94 km
Semi-major axis
8,060.591 km
Eccentricity
0.02587
Inclination
101.7617°
RAAN
7.4601°
Arg. of periapsis
305.1802°
True anomaly
Unknown
Mean anomaly
175.1794°
Eccentric anomaly
Unknown
Mean motion
2.99911 °/min
Orbital period
120.04 mins
BSTAR
0.0044662
Loading maneuver chart data...
Loading SW <> Apogee altitude chart data...
Loading historical data...
Loading historical data...
Loading historical data...
Loading historical data...
Loading historical data...
Loading historical data...
Loading historical data...

DELTA 1 DEB Visibility forecast

Observer location: undefined°, undefined°

Span
Click to sort rows by Start time (UTC) header in descending order
Start Az.
Max El. time (UTC)
Max El. Az.
Max El.
End time (UTC)
End Az.
12 mins2025-07-01 10:07:34.453Z90.525° ESE2025-07-01 10:13:34.453Z47.501° ENE21.063°2025-07-01 10:19:34.453Z6.936° NNE
18 mins2025-07-01 12:01:34.453Z156.993° SSE2025-07-01 12:09:34.453Z86.998° E44.89°2025-07-01 12:19:34.453Z343.877° N
11 mins2025-07-01 14:03:34.453Z232.704° WSW2025-07-01 14:08:34.453Z270.12° WNW19.631°2025-07-01 14:14:34.453Z311.652° NW
18 mins2025-07-02 00:36:34.453Z29.041° NE2025-07-02 00:45:34.453Z106.684° ESE38.48°2025-07-02 00:54:34.453Z174.831° S
17 mins2025-07-02 02:34:34.453Z3.089° NNE2025-07-02 02:42:34.453Z301.13° NW35.04°2025-07-02 02:51:34.453Z234.488° WSW
|